Location: ??????????
(42.1626°N, 44.1160°E)
Time: 13:58:49
(UTC+00:00)

Cosmos 2278 Rocket - Pass Details

Date: 03 March 2021
Orbit: 842 x 845 km, 71.0° (Epoch: 20 April)

Event Time Altitude Azimuth Distance (km) Brightness Sun altitude
Rises 16:59:55 0° 343° (NNW) 3,413 5.8 -23.6°
Reaches altitude 10° 17:02:41 10° 354° (N) 2,473 4.8 -24.1°
Enters shadow 17:06:27 28° 33° (NNE) 1,551 3.4 -24.8°
